sat.trackr.live / text

‹ back to catalog

QIANFAN-34

NORAD 61567 · 2024-185R

PAYLOAD ACTIVE UNKNOWN

§ Identity

Operator
Country
PRC
Launch date
2024-10-15
Launch site
TAISC
Launch vehicle
Mass (kg)
RCS (m²)

External: N2YO · Heavens-Above · Gunter

§ Orbital elements

Epoch: 2026-09-22T20:09:54.909504Z

Period
102.67 min
Inclination
88.9818°
Eccentricity
0.0006784
Mean motion
14.02524020 rev/d
Perigee alt
880.1 km
Apogee alt
890.0 km
Semi-major
7,263.2 km
B*
2.4154e-4
RAAN
46.3283°
Arg perigee
142.5246°
Mean anomaly
217.6409°
Rev number
10,917

§ Raw data

QIANFAN-341 61567U 24185R   26265.84021886  .00000385  00000+0  24154-3 0  99972 61567  88.9818  46.3283 0006784 142.5246 217.6409 14.02524020109171

JSON: /api/v1/satellites/61567 · /tle

For live sub-satellite position, see the globe view (requires WebGL).

§ Visibility from observer

Set your observer location to see the next 7 days of passes ≥ 10°. The values pass through the URL so the page stays shareable.

No JS? Fill the form by hand. The geolocation button needs JavaScript.